This is the latest recevied weather packets stored in our database for station/object SV1TQE-1. If no packets are shown the sender has not sent any weather packets the latest 10 day(s).
| Time | Temp. | Humidity | Pressure | Rain* | Wind** | Luminosity | Snow |
|---|---|---|---|---|---|---|---|
| 1787578609 | 41.11° C | 29% | 1017.5 hPa | - | - | - | - |
| 1787576807 | 40.56° C | 28% | 1017.6 hPa | - | - | - | - |
| 1787575907 | 39.44° C | 30% | 1017.7 hPa | - | - | - | - |
| 1787575007 | 38.89° C | 29% | 1017.7 hPa | - | - | - | - |
| 1787574107 | 40° C | 29% | 1017.8 hPa | - | - | - | - |
| 1787573981 | 40° C | 29% | 1017.9 hPa | - | - | - | - |
| 1787573904 | 39.44° C | 30% | 1017.9 hPa | - | - | - | - |
| 1787570589 | 40° C | 31% | 1018.2 hPa | - | - | - | - |
| 1787569689 | 39.44° C | 32% | 1018.3 hPa | - | - | - | - |
| 1787568785 | 38.33° C | 32% | 1018.4 hPa | - | - | - | - |
| 1787567885 | 38.33° C | 32% | 1018.6 hPa | - | - | - | - |
| 1787566985 | 38.33° C | 32% | 1018.6 hPa | - | - | - | - |
| 1787566085 | 37.22° C | 33% | 1018.7 hPa | - | - | - | - |
| 1787565185 | 37.78° C | 33% | 1018.8 hPa | - | - | - | - |
| 1787564284 | 37.78° C | 34% | 1018.9 hPa | - | - | - | - |
| 1787563384 | 37.78° C | 34% | 1019 hPa | - | - | - | - |
| 1787562484 | 37.22° C | 36% | 1019.1 hPa | - | - | - | - |
| 1787561584 | 36.67° C | 37% | 1018.8 hPa | - | - | - | - |
| 1787560684 | 36.67° C | 37% | 1019.2 hPa | - | - | - | - |
| 1787559784 | 37.22° C | 40% | 1019.2 hPa | - | - | - | - |
| 1787558914 | 36.11° C | 42% | 1019.2 hPa | - | - | - | - |
| 1787558013 | 35.56° C | 42% | 1019.3 hPa | - | - | - | - |
| 1787557113 | 35° C | 43% | 1019.2 hPa | - | - | - | - |
| 1787556213 | 35° C | 45% | 1019.3 hPa | - | - | - | - |
| 1787555313 | 34.44° C | 47% | 1019.1 hPa | - | - | - | - |
* Rain since midnight (hover to see other rain measurements)
** Current wind speed in m/s (hover to see current wind gust speed)